EUTELSAT 5 WEST A

Last updated on Jan. 20, 2021, 6:22 a.m. UTC

1 27460U 02035A   21019.83310500 -.00000037  00000-0  00000-0 0  9993
2 27460   1.0743  94.8748 0006111 206.0233 113.4365  1.00273273 67811
UTC
Height (km)
Latitude
Longitude
Inclination
Orbital Period
UTC large
Height (km)
Speed (km/s)
/
Latitude / Longitude
Inclination (degrees)
Orbital Period (minutes)
Azimuth
Elevation
Range (km)
Doppler Factor
iOS Compass Heading
iOS Angle

Next 30 passes for location: Hong Kong

Rise time Rise Azimuth (degrees) Set time Set Azimuth (degrees) Duration Max altitude (degrees)

No matching passes for this satellites